User: anonymous   Login
Location: Home
(42.5358°N, 72.7383°W)
Time: 20:49:07
(UTC-04:00)
Language:

YAOGAN 20A - Orbit

View from above orbital plane
View from above orbital plane
View from above satellite
View from above satellite

Ground track
Ground track

The orbit data is extracted from the following two-line orbital elements,

1 40109U 14047A   22179.59596191 -.00000063  00000-0  37529-4 0  9996
2 40109  63.3884 151.7421 0261747   8.2208 352.2982 13.45219728387478
Epoch (UTC): 28 June 2022 14:18:11
Eccentricity: 0.0261747
inclination: 63.3884°
perigee height: 894 km
apogee height: 1285 km
right ascension of ascending node: 151.7421°
argument of perigee: 8.2208°
revolutions per day: 13.45219728
mean anomaly at epoch: 352.2982°
orbit number at epoch: 38747

The dashed part of the orbit path shows where the satellite is in the earth's shadow,  

DLR